When you browse on this site, cookies collect data to enhance your experience and personalize the content and advertising you see.
Visit our Privacy Policy to learn more. By continuing to use the site, you agree to this use of cookies and data.
  • în România
  • Lista ţărilor
  • Pe 7 zile
  • Temperatura apei
  • Hartă satelitară
  • Meteo pe hartă
  • Widget-uri
  • user-avatar
    Intrare

    Meteo pe oră la Morsko

    Astăzi, 20 Februarie, Miercuri

    Timp Temperatura Precipitaţii Vânt Presiune Umiditate
    00:00 +5°C° 0.4 mm 4 m/s 742 mmHg 82%
    01:00 +5°C° 0.4 mm 5 m/s 742 mmHg 84%
    02:00 +3°C° 0.1 mm 5 m/s 742 mmHg 85%
    03:00 +3°C° 0.1 mm 5 m/s 743 mmHg 87%
    04:00 +2°C° 0.1 mm 5 m/s 743 mmHg 88%
    05:00 +2°C° 0 mm 5 m/s 743 mmHg 88%
    06:00 +2°C° 0 mm 5 m/s 743 mmHg 87%
    07:00 +2°C° 0 mm 5 m/s 743 mmHg 87%
    08:00 +2°C° 0 mm 5 m/s 744 mmHg 82%
    09:00 +3°C° 0 mm 6 m/s 744 mmHg 78%
    10:00 +3°C° 0 mm 6 m/s 744 mmHg 73%
    11:00 +4°C° 0 mm 6 m/s 745 mmHg 71%
    12:00 +4°C° 0 mm 6 m/s 745 mmHg 69%
    13:00 +4°C° 0 mm 6 m/s 745 mmHg 68%
    14:00 +4°C° 0 mm 6 m/s 745 mmHg 68%
    15:00 +4°C° 0 mm 6 m/s 745 mmHg 67%
    16:00 +4°C° 0 mm 6 m/s 745 mmHg 67%
    17:00 +5°C° 0 mm 5 m/s 746 mmHg 70%
    18:00 +4°C° 0 mm 4 m/s 746 mmHg 73%
    19:00 +4°C° 0 mm 4 m/s 746 mmHg 76%
    20:00 +4°C° 0 mm 4 m/s 747 mmHg 76%
    21:00 +4°C° 0 mm 4 m/s 747 mmHg 77%
    22:00 +4°C° 0 mm 4 m/s 747 mmHg 78%
    23:00 +4°C° 0 mm 4 m/s 747 mmHg 78%

    Mâine, 21 Februarie, Joi

    Timp Temperatura Precipitaţii Vânt Presiune Umiditate
    00:00 +4°C° 0 mm 4 m/s 748 mmHg 79%
    01:00 +3°C° 0 mm 4 m/s 748 mmHg 79%
    02:00 +3°C° 0 mm 4 m/s 748 mmHg 80%
    03:00 +3°C° 0 mm 4 m/s 748 mmHg 80%
    04:00 +3°C° 0 mm 4 m/s 748 mmHg 81%
    05:00 +3°C° 0 mm 4 m/s 748 mmHg 80%
    06:00 +3°C° 0 mm 4 m/s 748 mmHg 79%
    07:00 +3°C° 0 mm 4 m/s 748 mmHg 79%
    08:00 +3°C° 0 mm 5 m/s 748 mmHg 74%
    09:00 +5°C° 0 mm 5 m/s 748 mmHg 69%
    10:00 +5°C° 0 mm 6 m/s 748 mmHg 64%
    11:00 +5°C° 0.1 mm 6 m/s 747 mmHg 64%
    12:00 +5°C° 0.1 mm 6 m/s 747 mmHg 63%
    13:00 +5°C° 0.1 mm 6 m/s 746 mmHg 63%
    14:00 +5°C° 0.7 mm 6 m/s 746 mmHg 66%
    15:00 +5°C° 0.7 mm 6 m/s 746 mmHg 69%
    16:00 +5°C° 0.7 mm 6 m/s 745 mmHg 72%
    17:00 +5°C° 0.6 mm 6 m/s 745 mmHg 74%
    18:00 +4°C° 0.6 mm 6 m/s 745 mmHg 76%
    19:00 +4°C° 0.6 mm 7 m/s 745 mmHg 77%
    20:00 +4°C° 0.4 mm 7 m/s 745 mmHg 79%
    21:00 +4°C° 0.4 mm 7 m/s 745 mmHg 80%
    22:00 +4°C° 0.4 mm 7 m/s 745 mmHg 81%
    23:00 +4°C° 0.5 mm 7 m/s 744 mmHg 83%

    Poimâine, 22 Februarie, Vineri

    Timp Temperatura Precipitaţii Vânt Presiune Umiditate
    00:00 +4°C° 0.5 mm 6 m/s 744 mmHg 85%
    01:00 +5°C° 0.5 mm 6 m/s 744 mmHg 87%
    02:00 +5°C° 0.2 mm 6 m/s 744 mmHg 88%
    03:00 +5°C° 0.2 mm 6 m/s 744 mmHg 88%
    04:00 +4°C° 0.2 mm 6 m/s 744 mmHg 89%
    05:00 +4°C° 0.8 mm 6 m/s 744 mmHg 87%
    06:00 +4°C° 0.8 mm 7 m/s 745 mmHg 86%
    07:00 +4°C° 0.8 mm 7 m/s 745 mmHg 85%
    08:00 +2°C° 0.3 mm 7 m/s 746 mmHg 81%
    09:00 0°C° 0.3 mm 7 m/s 748 mmHg 78%
    10:00 -2°C° 0.3 mm 7 m/s 749 mmHg 74%
    11:00 -2°C° 0 mm 6 m/s 750 mmHg 68%
    12:00 -1°C° 0 mm 6 m/s 751 mmHg 61%
    13:00 0°C° 0 mm 5 m/s 752 mmHg 55%
    14:00 -2°C° 0 mm 6 m/s 752 mmHg 54%
    15:00 -2°C° 0 mm 6 m/s 753 mmHg 54%
    16:00 -3°C° 0 mm 6 m/s 754 mmHg 54%
    17:00 -4°C° 0 mm 6 m/s 754 mmHg 56%
    18:00 -5°C° 0 mm 5 m/s 755 mmHg 58%
    19:00 -6°C° 0 mm 5 m/s 756 mmHg 60%
    20:00 -6°C° 0 mm 5 m/s 756 mmHg 57%
    21:00 -6°C° 0 mm 5 m/s 757 mmHg 55%
    22:00 -5°C° 0 mm 4 m/s 757 mmHg 53%
    23:00 -5°C° 0 mm 4 m/s 758 mmHg 50%

    23 Februarie, Sâmbătă

    Timp Temperatura Precipitaţii Vânt Presiune Umiditate
    00:00 -7°C° 0 mm 4 m/s 758 mmHg 48%
    01:00 -7°C° 0 mm 4 m/s 759 mmHg 46%
    02:00 -6°C° 0 mm 3 m/s 759 mmHg 45%
    03:00 -6°C° 0 mm 3 m/s 759 mmHg 44%
    04:00 -6°C° 0 mm 3 m/s 759 mmHg 43%
    05:00 -6°C° 0 mm 3 m/s 759 mmHg 43%
    06:00 -5°C° 0 mm 2 m/s 759 mmHg 43%
    07:00 -5°C° 0 mm 2 m/s 759 mmHg 43%
    08:00 -4°C° 0 mm 2 m/s 760 mmHg 39%
    09:00 -4°C° 0 mm 3 m/s 760 mmHg 35%
    10:00 -4°C° 0 mm 3 m/s 760 mmHg 31%
    11:00 -2°C° 0 mm 3 m/s 760 mmHg 28%
    12:00 -1°C° 0 mm 3 m/s 760 mmHg 26%
    13:00 0°C° 0 mm 3 m/s 759 mmHg 23%
    14:00 0°C° 0 mm 3 m/s 759 mmHg 25%
    15:00 +1°C° 0 mm 2 m/s 759 mmHg 27%
    16:00 +1°C° 0 mm 2 m/s 759 mmHg 29%
    17:00 -1°C° 0 mm 2 m/s 759 mmHg 32%
    18:00 0°C° 0 mm 1 m/s 759 mmHg 35%
    19:00 -1°C° 0 mm 1 m/s 759 mmHg 38%
    20:00 -1°C° 0 mm 1 m/s 759 mmHg 38%
    21:00 -1°C° 0 mm 1 m/s 759 mmHg 39%
    22:00 -2°C° 0 mm 1 m/s 759 mmHg 39%
    23:00 -2°C° 0 mm 1 m/s 758 mmHg 39%

    24 Februarie, Duminică

    Timp Temperatura Precipitaţii Vânt Presiune Umiditate
    00:00 -2°C° 0 mm 1 m/s 758 mmHg 39%
    01:00 -4°C° 0 mm 2 m/s 758 mmHg 39%
    02:00 -4°C° 0 mm 2 m/s 758 mmHg 39%
    03:00 -3°C° 0 mm 2 m/s 758 mmHg 39%
    04:00 -3°C° 0 mm 2 m/s 757 mmHg 39%
    05:00 -3°C° 0 mm 2 m/s 757 mmHg 38%
    06:00 -3°C° 0 mm 2 m/s 757 mmHg 37%
    07:00 -2°C° 0 mm 2 m/s 756 mmHg 36%
    08:00 -2°C° 0 mm 3 m/s 756 mmHg 33%
    09:00 -1°C° 0 mm 3 m/s 756 mmHg 31%
    10:00 0°C° 0 mm 3 m/s 756 mmHg 28%
    11:00 +1°C° 0 mm 4 m/s 755 mmHg 28%
    12:00 +3°C° 0 mm 4 m/s 755 mmHg 28%
    13:00 +4°C° 0 mm 4 m/s 754 mmHg 28%
    14:00 +4°C° 0 mm 3 m/s 754 mmHg 34%
    15:00 +3°C° 0 mm 3 m/s 754 mmHg 39%
    16:00 +4°C° 0 mm 2 m/s 754 mmHg 45%
    17:00 +3°C° 0 mm 2 m/s 754 mmHg 49%
    18:00 +2°C° 0 mm 2 m/s 754 mmHg 52%
    19:00 +2°C° 0 mm 2 m/s 754 mmHg 56%
    20:00 +1°C° 0 mm 2 m/s 754 mmHg 58%
    21:00 +2°C° 0 mm 1 m/s 754 mmHg 60%
    22:00 +2°C° 0 mm 1 m/s 754 mmHg 62%
    23:00 +2°C° 0 mm 1 m/s 754 mmHg 63%

    25 Februarie, Luni

    Timp Temperatura Precipitaţii Vânt Presiune Umiditate
    00:00 +2°C° 0 mm 1 m/s 754 mmHg 64%
    01:00 +2°C° 0 mm 1 m/s 754 mmHg 65%
    02:00 +2°C° 0 mm 1 m/s 754 mmHg 66%
    03:00 +2°C° 0 mm 1 m/s 753 mmHg 66%
    04:00 +2°C° 0 mm 1 m/s 753 mmHg 66%
    05:00 +1°C° 0 mm 2 m/s 753 mmHg 67%
    06:00 +1°C° 0 mm 2 m/s 753 mmHg 67%
    07:00 +1°C° 0 mm 2 m/s 753 mmHg 67%
    08:00 +2°C° 0 mm 2 m/s 753 mmHg 64%
    09:00 +2°C° 0 mm 3 m/s 753 mmHg 60%
    10:00 +3°C° 0 mm 3 m/s 753 mmHg 56%
    11:00 +4°C° 0 mm 3 m/s 753 mmHg 55%
    12:00 +5°C° 0 mm 3 m/s 753 mmHg 53%
    13:00 +7°C° 0 mm 3 m/s 752 mmHg 52%
    14:00 +6°C° 0 mm 4 m/s 752 mmHg 55%
    15:00 +6°C° 0 mm 4 m/s 752 mmHg 57%
    16:00 +6°C° 0 mm 4 m/s 752 mmHg 60%
    17:00 +5°C° 0 mm 3 m/s 752 mmHg 68%
    18:00 +4°C° 0 mm 3 m/s 752 mmHg 75%
    19:00 +3°C° 0 mm 3 m/s 753 mmHg 82%
    20:00 +2°C° 0 mm 3 m/s 753 mmHg 86%
    21:00 +2°C° 0 mm 3 m/s 753 mmHg 89%
    22:00 +2°C° 0 mm 2 m/s 753 mmHg 93%
    23:00 +2°C° 0 mm 2 m/s 753 mmHg 93%
    Arată mai mult